Retour au catalogue

NOAA 17 DEB

ActifPO
NORAD 48702·DEBRIS·🇺🇸 United States

Lancé Jun 24, 2002 depuis Vandenberg Space Force Base

Loading…

Prochains Passages (prochaines 24 heures)

TLE

FraisSource: Space-Track

Époque: Sep 14, 2026, 10:52 UTC

1 48702U 02032AK  26257.45281776  .00012562  00000-0  17113-2 0  9991
2 48702  98.6626 255.5050 0003314 246.8103 113.2757 14.78858783289944

Suivez NOAA 17 DEB en temps réel avec AllMySat

Download on the App Store